Time,TemperatureF,DewpointF,PressureIn,WindDirection,WindDirectionDegrees,WindSpeedMPH,WindSpeedGustMPH,Humidity,HourlyPrecipIn,Conditions,Clouds,dailyrainin,SoftwareType,DateUTC
2013-07-25 00:02:00,60.4,54.3,29.98,NNE,23,0.0,0.0,80,0.00,,,0.00,WUHU216HW,2013-07-25 04:02:00,
2013-07-25 00:08:00,60.4,54.3,29.98,NNE,23,0.0,0.0,80,0.00,,,0.00,WUHU216HW,2013-07-25 04:08:00,
2013-07-25 00:13:00,60.2,54.1,29.99,NNE,23,0.0,0.0,80,0.00,,,0.00,WUHU216HW,2013-07-25 04:13:00,
2013-07-25 00:18:00,60.0,53.9,29.98,NNE,23,0.0,0.0,80,0.00,,,0.00,WUHU216HW,2013-07-25 04:18:00,
2013-07-25 00:23:00,60.0,53.9,29.98,NNE,23,0.0,0.0,80,0.00,,,0.00,WUHU216HW,2013-07-25 04:23:00,
2013-07-25 00:29:00,59.9,54.1,29.99,NNE,23,0.0,0.0,81,0.00,,,0.00,WUHU216HW,2013-07-25 04:29:00,
2013-07-25 00:35:00,59.7,53.9,30.00,NNE,23,0.0,0.0,81,0.00,,,0.00,WUHU216HW,2013-07-25 04:35:00,
2013-07-25 00:40:00,59.7,53.9,30.00,NNE,23,0.0,0.0,81,0.00,,,0.00,WUHU216HW,2013-07-25 04:40:00,
2013-07-25 00:45:00,59.7,54.2,30.00,NNE,23,0.0,0.0,82,0.00,,,0.00,WUHU216HW,2013-07-25 04:45:00,
2013-07-25 00:50:00,59.5,54.0,30.00,NNE,23,0.0,0.0,82,0.00,,,0.00,WUHU216HW,2013-07-25 04:50:00,
2013-07-25 00:56:00,59.5,54.0,30.00,NNE,23,0.0,0.0,82,0.00,,,0.00,WUHU216HW,2013-07-25 04:56:00,
2013-07-25 01:01:00,59.3,53.8,30.00,NNE,23,0.0,0.0,82,0.00,,,0.00,WUHU216HW,2013-07-25 05:01:00,
2013-07-25 01:07:00,59.1,53.7,29.99,NNE,23,0.0,0.0,82,0.00,,,0.00,WUHU216HW,2013-07-25 05:07:00,
2013-07-25 01:12:00,59.1,53.7,29.99,NNE,23,0.0,0.0,82,0.00,,,0.00,WUHU216HW,2013-07-25 05:12:00,
2013-07-25 01:17:00,58.8,53.3,29.99,NNE,23,0.0,0.0,82,0.00,,,0.00,WUHU216HW,2013-07-25 05:17:00,
2013-07-25 01:22:00,58.8,53.3,29.99,NNE,23,0.0,0.0,82,0.00,,,0.00,WUHU216HW,2013-07-25 05:22:00,
2013-07-25 01:27:00,58.8,53.6,29.99,NNE,23,0.0,0.0,83,0.00,,,0.00,WUHU216HW,2013-07-25 05:27:00,
2013-07-25 01:32:00,58.8,53.3,29.99,NNE,23,0.0,0.0,82,0.00,,,0.00,WUHU216HW,2013-07-25 05:32:00,
2013-07-25 01:38:00,58.8,53.6,29.99,NNE,23,0.0,0.0,83,0.00,,,0.00,WUHU216HW,2013-07-25 05:38:00,
2013-07-25 01:43:00,58.8,53.6,29.99,NNE,23,0.0,0.0,83,0.00,,,0.00,WUHU216HW,2013-07-25 05:43:00,
2013-07-25 01:49:00,58.8,53.6,29.99,NNE,23,0.0,0.0,83,0.00,,,0.00,WUHU216HW,2013-07-25 05:49:00,
2013-07-25 01:54:00,58.8,53.3,29.99,NNE,23,0.0,0.0,82,0.00,,,0.00,WUHU216HW,2013-07-25 05:54:00,
2013-07-25 01:59:00,58.8,53.6,29.99,NNE,23,0.0,0.0,83,0.00,,,0.00,WUHU216HW,2013-07-25 05:59:00,
2013-07-25 02:04:00,58.8,53.6,29.99,NNE,23,0.0,0.0,83,0.00,,,0.00,WUHU216HW,2013-07-25 06:04:00,
2013-07-25 02:09:00,58.6,53.4,29.98,NNE,23,0.0,0.0,83,0.00,,,0.00,WUHU216HW,2013-07-25 06:09:00,
2013-07-25 02:14:00,58.6,53.4,29.98,NNE,23,0.0,0.0,83,0.00,,,0.00,WUHU216HW,2013-07-25 06:14:00,
2013-07-25 02:19:00,58.4,53.3,29.99,NNE,23,0.0,0.0,83,0.00,,,0.00,WUHU216HW,2013-07-25 06:19:00,
2013-07-25 02:25:00,58.2,53.1,29.99,NNE,23,0.0,0.0,83,0.00,,,0.00,WUHU216HW,2013-07-25 06:25:00,
2013-07-25 02:30:00,58.1,52.9,29.99,NNE,23,0.0,0.0,83,0.00,,,0.00,WUHU216HW,2013-07-25 06:30:00,
2013-07-25 02:36:00,58.1,52.9,29.98,NNE,23,0.0,0.0,83,0.00,,,0.00,WUHU216HW,2013-07-25 06:36:00,
2013-07-25 02:41:00,58.1,52.9,29.98,NNE,23,0.0,0.0,83,0.00,,,0.00,WUHU216HW,2013-07-25 06:41:00,
2013-07-25 02:46:00,57.9,52.7,29.98,NNE,23,0.0,0.0,83,0.00,,,0.00,WUHU216HW,2013-07-25 06:46:00,
2013-07-25 02:52:00,57.9,52.7,29.98,NNE,23,0.0,0.0,83,0.00,,,0.00,WUHU216HW,2013-07-25 06:52:00,
2013-07-25 02:57:00,57.9,52.7,29.98,NNE,23,0.0,0.0,83,0.00,,,0.00,WUHU216HW,2013-07-25 06:57:00,
2013-07-25 03:02:00,57.7,52.5,29.98,NNE,23,0.0,0.0,83,0.00,,,0.00,WUHU216HW,2013-07-25 07:02:00,
2013-07-25 03:07:00,57.5,52.4,29.98,NNE,23,0.0,0.0,83,0.00,,,0.00,WUHU216HW,2013-07-25 07:07:00,
2013-07-25 03:13:00,57.3,52.2,29.98,NNE,23,0.0,0.0,83,0.00,,,0.00,WUHU216HW,2013-07-25 07:13:00,
2013-07-25 03:19:00,57.3,52.2,29.98,NNE,23,0.0,0.0,83,0.00,,,0.00,WUHU216HW,2013-07-25 07:19:00,
2013-07-25 03:25:00,57.0,51.8,29.97,NNE,23,0.0,0.0,83,0.00,,,0.00,WUHU216HW,2013-07-25 07:25:00,
2013-07-25 03:30:00,57.0,51.8,29.97,NNE,23,0.0,0.0,83,0.00,,,0.00,WUHU216HW,2013-07-25 07:30:00,
2013-07-25 03:35:00,57.0,52.1,29.97,NNE,23,0.0,0.0,84,0.00,,,0.00,WUHU216HW,2013-07-25 07:35:00,
2013-07-25 03:41:00,56.8,52.0,29.98,NNE,23,0.0,0.0,84,0.00,,,0.00,WUHU216HW,2013-07-25 07:41:00,
2013-07-25 03:46:00,56.8,52.0,29.98,NNE,23,0.0,0.0,84,0.00,,,0.00,WUHU216HW,2013-07-25 07:46:00,
2013-07-25 03:57:00,56.4,51.6,29.97,NNE,23,0.0,0.0,84,0.00,,,0.00,WUHU216HW,2013-07-25 07:57:00,
2013-07-25 04:03:00,56.4,51.6,29.97,NNE,23,0.0,0.0,84,0.00,,,0.00,WUHU216HW,2013-07-25 08:03:00,
2013-07-25 04:08:00,56.3,51.4,29.97,NNE,23,0.0,0.0,84,0.00,,,0.00,WUHU216HW,2013-07-25 08:08:00,
2013-07-25 04:13:00,56.1,51.2,29.97,NNE,23,0.0,0.0,84,0.00,,,0.00,WUHU216HW,2013-07-25 08:13:00,
2013-07-25 04:23:00,55.9,51.1,29.97,NNE,23,0.0,0.0,84,0.00,,,0.00,WUHU216HW,2013-07-25 08:23:00,
2013-07-25 04:28:00,55.9,51.1,29.97,NNE,23,0.0,0.0,84,0.00,,,0.00,WUHU216HW,2013-07-25 08:28:00,
2013-07-25 04:34:00,55.9,51.1,29.98,NNE,23,0.0,0.0,84,0.00,,,0.00,WUHU216HW,2013-07-25 08:34:00,
2013-07-25 04:39:00,55.7,50.9,29.98,NNE,23,0.0,0.0,84,0.00,,,0.00,WUHU216HW,2013-07-25 08:39:00,
2013-07-25 04:44:00,55.7,51.2,29.98,NNE,23,0.0,0.0,85,0.00,,,0.00,WUHU216HW,2013-07-25 08:44:00,
2013-07-25 04:50:00,55.5,51.0,29.98,NNE,23,0.0,0.0,85,0.00,,,0.00,WUHU216HW,2013-07-25 08:50:00,
2013-07-25 04:55:00,55.5,51.0,29.98,NNE,23,0.0,0.0,85,0.00,,,0.00,WUHU216HW,2013-07-25 08:55:00,
2013-07-25 05:00:00,55.5,51.0,29.98,NNE,23,0.0,0.0,85,0.00,,,0.00,WUHU216HW,2013-07-25 09:00:00,
2013-07-25 05:06:00,55.2,50.7,29.98,NNE,23,0.0,0.0,85,0.00,,,0.00,WUHU216HW,2013-07-25 09:06:00,
2013-07-25 05:12:00,55.2,50.7,29.98,NNE,23,0.0,0.0,85,0.00,,,0.00,WUHU216HW,2013-07-25 09:12:00,
2013-07-25 05:17:00,55.2,50.7,29.98,NNE,23,0.0,0.0,85,0.00,,,0.00,WUHU216HW,2013-07-25 09:17:00,
2013-07-25 05:22:00,55.0,50.5,29.99,NNE,23,0.0,0.0,85,0.00,,,0.00,WUHU216HW,2013-07-25 09:22:00,
2013-07-25 05:28:00,55.0,50.5,29.99,NNE,23,0.0,0.0,85,0.00,,,0.00,WUHU216HW,2013-07-25 09:28:00,
2013-07-25 05:33:00,55.0,50.5,29.99,NNE,23,0.0,0.0,85,0.00,,,0.00,WUHU216HW,2013-07-25 09:33:00,
2013-07-25 05:43:00,54.8,50.3,29.99,NNE,23,0.0,0.0,85,0.00,,,0.00,WUHU216HW,2013-07-25 09:43:00,
2013-07-25 05:48:00,54.6,50.2,30.00,NNE,23,0.0,0.0,85,0.00,,,0.00,WUHU216HW,2013-07-25 09:48:00,
2013-07-25 05:54:00,54.5,50.0,30.00,NNE,23,0.0,0.0,85,0.00,,,0.00,WUHU216HW,2013-07-25 09:54:00,
2013-07-25 06:00:00,54.3,50.1,30.00,NNE,23,0.0,0.0,86,0.00,,,0.00,WUHU216HW,2013-07-25 10:00:00,
2013-07-25 06:05:00,54.3,50.1,30.00,NNE,23,0.0,0.0,86,0.00,,,0.00,WUHU216HW,2013-07-25 10:05:00,
2013-07-25 06:11:00,54.1,50.0,30.00,NNE,23,0.0,0.0,86,0.00,,,0.00,WUHU216HW,2013-07-25 10:11:00,
2013-07-25 06:16:00,54.1,50.0,30.00,NNE,23,0.0,0.0,86,0.00,,,0.00,WUHU216HW,2013-07-25 10:16:00,
2013-07-25 06:21:00,54.3,50.1,30.00,NNE,23,0.0,0.0,86,0.00,,,0.00,WUHU216HW,2013-07-25 10:21:00,
2013-07-25 06:26:00,54.1,50.0,30.00,NNE,23,0.0,0.0,86,0.00,,,0.00,WUHU216HW,2013-07-25 10:26:00,
2013-07-25 06:32:00,54.1,50.0,30.00,NNE,23,0.0,0.0,86,0.00,,,0.00,WUHU216HW,2013-07-25 10:32:00,
2013-07-25 06:38:00,54.1,50.0,30.00,NNE,23,0.0,0.0,86,0.00,,,0.00,WUHU216HW,2013-07-25 10:38:00,
2013-07-25 06:43:00,54.3,50.1,30.00,NNE,23,0.0,0.0,86,0.00,,,0.00,WUHU216HW,2013-07-25 10:43:00,
2013-07-25 06:48:00,55.0,51.1,30.01,NNE,23,0.0,0.0,87,0.00,,,0.00,WUHU216HW,2013-07-25 10:48:00,
2013-07-25 06:54:00,55.9,52.4,30.01,NNE,23,0.0,0.0,88,0.00,,,0.00,WUHU216HW,2013-07-25 10:54:00,
2013-07-25 06:59:00,56.3,52.7,30.01,NNE,23,0.0,0.0,88,0.00,,,0.00,WUHU216HW,2013-07-25 10:59:00,
2013-07-25 07:04:00,57.0,53.8,30.01,NNE,23,0.0,0.0,89,0.00,,,0.00,WUHU216HW,2013-07-25 11:04:00,
2013-07-25 07:09:00,57.5,53.8,30.01,NNE,23,0.0,0.0,88,0.00,,,0.00,WUHU216HW,2013-07-25 11:09:00,
2013-07-25 07:15:00,57.9,54.0,30.01,NNE,23,0.0,0.0,87,0.00,,,0.00,WUHU216HW,2013-07-25 11:15:00,
2013-07-25 07:20:00,57.9,53.7,30.01,NNE,23,0.0,0.0,86,0.00,,,0.00,WUHU216HW,2013-07-25 11:20:00,
2013-07-25 07:25:00,57.9,53.7,30.02,NNE,23,0.0,0.0,86,0.00,,,0.00,WUHU216HW,2013-07-25 11:25:00,
2013-07-25 07:30:00,57.9,53.7,30.02,NNE,23,0.0,0.0,86,0.00,,,0.00,WUHU216HW,2013-07-25 11:30:00,
2013-07-25 07:36:00,57.9,53.7,30.02,NNE,23,0.0,0.0,86,0.00,,,0.00,WUHU216HW,2013-07-25 11:36:00,
2013-07-25 07:41:00,58.2,54.1,30.02,NNE,23,0.0,0.0,86,0.00,,,0.00,WUHU216HW,2013-07-25 11:41:00,
2013-07-25 07:47:00,58.2,54.1,30.02,NNE,23,0.0,0.0,86,0.00,,,0.00,WUHU216HW,2013-07-25 11:47:00,
2013-07-25 07:57:00,58.8,54.3,30.03,NNE,23,0.0,0.0,85,0.00,,,0.00,WUHU216HW,2013-07-25 11:57:00,
2013-07-25 08:03:00,58.8,54.3,30.03,NNE,23,0.0,0.0,85,0.00,,,0.00,WUHU216HW,2013-07-25 12:03:00,
2013-07-25 08:09:00,58.8,54.3,30.03,NNE,23,0.0,0.0,85,0.00,,,0.00,WUHU216HW,2013-07-25 12:09:00,
2013-07-25 08:14:00,59.3,54.8,30.03,NNE,23,0.0,0.0,85,0.00,,,0.00,WUHU216HW,2013-07-25 12:14:00,
2013-07-25 08:19:00,59.7,55.2,30.03,NNE,23,0.0,0.0,85,0.00,,,0.00,WUHU216HW,2013-07-25 12:19:00,
2013-07-25 08:24:00,60.0,55.5,30.03,NNE,23,0.0,0.0,85,0.00,,,0.00,WUHU216HW,2013-07-25 12:24:00,
2013-07-25 08:30:00,60.4,55.9,30.03,NNE,23,0.0,0.0,85,0.00,,,0.00,WUHU216HW,2013-07-25 12:30:00,
2013-07-25 08:35:00,60.6,55.7,30.03,NNE,23,0.0,0.0,84,0.00,,,0.00,WUHU216HW,2013-07-25 12:35:00,
2013-07-25 08:40:00,60.9,56.1,30.03,NNE,23,0.0,0.0,84,0.00,,,0.00,WUHU216HW,2013-07-25 12:40:00,
2013-07-25 08:46:00,61.1,56.3,30.02,NNE,23,0.0,0.0,84,0.00,,,0.00,WUHU216HW,2013-07-25 12:46:00,
2013-07-25 08:51:00,61.3,56.4,30.03,NNE,23,0.0,0.0,84,0.00,,,0.00,WUHU216HW,2013-07-25 12:51:00,
2013-07-25 08:57:00,61.5,56.6,30.02,NNE,23,0.0,0.0,84,0.00,,,0.00,WUHU216HW,2013-07-25 12:57:00,
2013-07-25 09:02:00,61.7,56.4,30.03,NNE,23,0.0,0.0,83,0.00,,,0.00,WUHU216HW,2013-07-25 13:02:00,
2013-07-25 09:07:00,62.2,56.9,30.02,NNE,23,0.0,0.0,83,0.00,,,0.00,WUHU216HW,2013-07-25 13:07:00,
2013-07-25 09:13:00,62.4,56.8,30.03,NNE,23,0.0,0.0,82,0.00,,,0.00,WUHU216HW,2013-07-25 13:13:00,
2013-07-25 09:19:00,62.7,57.1,30.03,NNE,23,0.0,0.0,82,0.00,,,0.00,WUHU216HW,2013-07-25 13:19:00,
2013-07-25 09:24:00,63.3,57.7,30.03,NNE,23,0.0,0.0,82,0.00,,,0.00,WUHU216HW,2013-07-25 13:24:00,
2013-07-25 09:30:00,63.5,57.8,30.03,NNE,23,0.0,0.0,82,0.00,,,0.00,WUHU216HW,2013-07-25 13:30:00,
2013-07-25 09:36:00,64.0,58.4,30.03,NNE,23,0.0,0.0,82,0.00,,,0.00,WUHU216HW,2013-07-25 13:36:00,
2013-07-25 09:42:00,64.5,58.6,30.02,NNE,23,0.0,0.0,81,0.00,,,0.00,WUHU216HW,2013-07-25 13:42:00,
2013-07-25 09:47:00,64.5,58.2,30.03,NNE,23,0.0,0.0,80,0.00,,,0.00,WUHU216HW,2013-07-25 13:47:00,
2013-07-25 09:53:00,65.1,58.8,30.03,NNE,23,0.0,0.0,80,0.00,,,0.00,WUHU216HW,2013-07-25 13:53:00,
2013-07-25 09:58:00,65.4,58.8,30.03,NNE,23,0.0,0.0,79,0.00,,,0.00,WUHU216HW,2013-07-25 13:58:00,
2013-07-25 10:04:00,65.8,59.1,30.02,NNE,23,0.0,0.0,79,0.00,,,0.00,WUHU216HW,2013-07-25 14:04:00,
2013-07-25 10:09:00,66.3,59.3,30.03,NNE,23,0.0,0.0,78,0.00,,,0.00,WUHU216HW,2013-07-25 14:09:00,
2013-07-25 10:15:00,66.5,59.5,30.02,NNE,23,0.0,0.0,78,0.00,,,0.00,WUHU216HW,2013-07-25 14:15:00,
2013-07-25 10:21:00,67.1,60.0,30.02,NNE,23,0.0,0.0,78,0.00,,,0.00,WUHU216HW,2013-07-25 14:21:00,
2013-07-25 10:26:00,67.6,60.2,30.03,NNE,23,0.0,0.0,77,0.00,,,0.00,WUHU216HW,2013-07-25 14:26:00,
2013-07-25 10:31:00,67.8,60.0,30.03,NNE,23,0.0,0.0,76,0.00,,,0.00,WUHU216HW,2013-07-25 14:31:00,
2013-07-25 10:36:00,68.3,60.5,30.03,NNE,23,0.0,0.0,76,0.00,,,0.00,WUHU216HW,2013-07-25 14:36:00,
2013-07-25 10:41:00,68.9,60.2,30.03,NNE,23,0.0,0.0,74,0.00,,,0.00,WUHU216HW,2013-07-25 14:41:00,
2013-07-25 10:46:00,69.0,60.0,30.03,NNE,23,0.0,0.0,73,0.00,,,0.00,WUHU216HW,2013-07-25 14:46:00,
2013-07-25 10:51:00,69.4,60.7,30.04,NNE,23,0.0,0.0,74,0.00,,,0.00,WUHU216HW,2013-07-25 14:51:00,
2013-07-25 10:56:00,69.9,60.8,30.04,NNE,23,0.0,0.0,73,0.00,,,0.00,WUHU216HW,2013-07-25 14:56:00,
2013-07-25 11:01:00,70.5,61.7,30.04,NNE,23,2.6,2.6,74,0.00,,,0.00,WUHU216HW,2013-07-25 15:01:00,
2013-07-25 11:07:00,71.2,61.7,30.04,NNE,23,0.0,2.6,72,0.00,,,0.00,WUHU216HW,2013-07-25 15:07:00,
2013-07-25 11:13:00,71.7,61.8,30.04,NNE,23,0.0,0.0,71,0.00,,,0.00,WUHU216HW,2013-07-25 15:13:00,
2013-07-25 11:18:00,71.9,61.7,30.04,NNE,23,0.0,0.0,70,0.00,,,0.00,WUHU216HW,2013-07-25 15:18:00,
2013-07-25 11:24:00,72.1,61.8,30.04,NNE,23,0.0,0.0,70,0.00,,,0.00,WUHU216HW,2013-07-25 15:24:00,
2013-07-25 11:30:00,72.3,61.6,30.04,NNE,23,0.0,0.0,69,0.00,,,0.00,WUHU216HW,2013-07-25 15:30:00,
2013-07-25 11:35:00,72.8,61.2,30.04,NNE,23,0.0,0.0,67,0.00,,,0.00,WUHU216HW,2013-07-25 15:35:00,
2013-07-25 11:41:00,73.0,61.4,30.04,NNE,23,0.0,0.0,67,0.00,,,0.00,WUHU216HW,2013-07-25 15:41:00,
2013-07-25 11:46:00,73.2,61.6,30.04,NNE,23,0.0,0.0,67,0.00,,,0.00,WUHU216HW,2013-07-25 15:46:00,
2013-07-25 11:52:00,73.2,60.7,30.04,NNE,23,0.0,0.0,65,0.00,,,0.00,WUHU216HW,2013-07-25 15:52:00,
2013-07-25 11:58:00,73.5,61.5,30.04,NNE,23,0.0,0.0,66,0.00,,,0.00,WUHU216HW,2013-07-25 15:58:00,
2013-07-25 12:03:00,73.7,61.2,30.03,NNE,23,0.0,0.0,65,0.00,,,0.00,WUHU216HW,2013-07-25 16:03:00,
2013-07-25 12:09:00,73.7,61.2,30.03,NNE,23,0.0,0.0,65,0.00,,,0.00,WUHU216HW,2013-07-25 16:09:00,
2013-07-25 12:14:00,73.9,61.3,30.03,NNE,23,0.0,0.0,65,0.00,,,0.00,WUHU216HW,2013-07-25 16:14:00,
2013-07-25 12:20:00,74.1,61.1,30.03,NNE,23,0.0,0.0,64,0.00,,,0.00,WUHU216HW,2013-07-25 16:20:00,
2013-07-25 12:25:00,74.4,61.4,30.03,NNE,23,0.0,0.0,64,0.00,,,0.00,WUHU216HW,2013-07-25 16:25:00,
2013-07-25 12:31:00,74.8,61.3,30.03,North,0,0.0,0.0,63,0.00,,,0.00,WUHU216HW,2013-07-25 16:31:00,
2013-07-25 12:42:00,75.0,61.1,30.03,North,0,0.0,0.0,62,0.00,,,0.00,WUHU216HW,2013-07-25 16:42:00,
2013-07-25 12:47:00,74.8,60.9,30.03,NNE,23,0.0,0.0,62,0.00,,,0.00,WUHU216HW,2013-07-25 16:47:00,
2013-07-25 12:53:00,75.3,61.4,30.03,NNE,23,0.0,0.0,62,0.00,,,0.00,WUHU216HW,2013-07-25 16:53:00,
2013-07-25 12:58:00,75.3,61.0,30.03,NNE,23,0.0,0.0,61,0.00,,,0.00,WUHU216HW,2013-07-25 16:58:00,
2013-07-25 13:04:00,75.7,60.9,30.03,NNE,23,0.0,0.0,60,0.00,,,0.00,WUHU216HW,2013-07-25 17:04:00,
2013-07-25 13:10:00,76.1,61.2,30.03,NNE,23,0.0,0.0,60,0.00,,,0.00,WUHU216HW,2013-07-25 17:10:00,
2013-07-25 13:16:00,76.8,61.3,30.03,NNE,23,2.2,2.2,59,0.00,,,0.00,WUHU216HW,2013-07-25 17:16:00,
2013-07-25 13:22:00,77.0,60.5,30.03,NNE,23,6.2,6.2,57,0.00,,,0.00,WUHU216HW,2013-07-25 17:22:00,
2013-07-25 13:28:00,77.1,61.2,30.03,NNE,23,0.0,6.2,58,0.00,,,0.00,WUHU216HW,2013-07-25 17:28:00,
2013-07-25 13:33:00,77.5,62.0,30.03,NNE,23,0.0,6.2,59,0.00,,,0.00,WUHU216HW,2013-07-25 17:33:00,
2013-07-25 13:39:00,78.4,60.9,30.03,NNE,23,0.0,0.0,55,0.00,,,0.00,WUHU216HW,2013-07-25 17:39:00,
2013-07-25 13:44:00,78.4,60.9,30.03,North,0,0.0,0.0,55,0.00,,,0.00,WUHU216HW,2013-07-25 17:44:00,
2013-07-25 13:49:00,78.4,60.9,30.03,NNE,23,0.0,0.0,55,0.00,,,0.00,WUHU216HW,2013-07-25 17:49:00,
2013-07-25 13:54:00,78.9,61.4,30.03,NNE,23,0.0,0.0,55,0.00,,,0.00,WUHU216HW,2013-07-25 17:54:00,
2013-07-25 14:00:00,79.1,60.5,30.03,North,0,0.0,0.0,53,0.00,,,0.00,WUHU216HW,2013-07-25 18:00:00,
2013-07-25 14:05:00,79.1,61.5,30.03,North,0,0.0,0.0,55,0.00,,,0.00,WUHU216HW,2013-07-25 18:05:00,
2013-07-25 14:11:00,79.3,60.6,30.03,NW,315,0.0,4.0,53,0.00,,,0.00,WUHU216HW,2013-07-25 18:11:00,
2013-07-25 14:17:00,79.5,60.8,30.03,NNW,338,0.0,4.0,53,0.00,,,0.00,WUHU216HW,2013-07-25 18:17:00,
2013-07-25 14:23:00,79.8,61.7,30.03,NNW,338,0.0,0.0,54,0.00,,,0.00,WUHU216HW,2013-07-25 18:23:00,
2013-07-25 14:29:00,80.4,61.1,30.03,WSW,248,0.0,0.0,52,0.00,,,0.00,WUHU216HW,2013-07-25 18:29:00,
2013-07-25 14:35:00,80.2,60.4,30.03,WSW,248,0.0,3.8,51,0.00,,,0.00,WUHU216HW,2013-07-25 18:35:00,
2013-07-25 14:40:00,80.2,60.4,30.03,WSW,248,0.0,3.8,51,0.00,,,0.00,WUHU216HW,2013-07-25 18:40:00,
2013-07-25 14:46:00,80.6,60.7,30.03,WSW,248,0.0,0.0,51,0.00,,,0.00,WUHU216HW,2013-07-25 18:46:00,
2013-07-25 14:51:00,80.7,59.8,30.03,WSW,248,0.0,0.0,49,0.00,,,0.00,WUHU216HW,2013-07-25 18:51:00,
2013-07-25 15:02:00,80.4,59.4,30.03,WSW,248,0.0,0.0,49,0.00,,,0.00,WUHU216HW,2013-07-25 19:02:00,
2013-07-25 15:07:00,81.1,60.7,30.03,WSW,248,0.0,0.0,50,0.00,,,0.00,WUHU216HW,2013-07-25 19:07:00,
2013-07-25 15:13:00,82.2,60.4,30.02,WSW,248,0.0,0.0,48,0.00,,,0.00,WUHU216HW,2013-07-25 19:13:00,
2013-07-25 15:19:00,82.0,60.3,30.02,WSW,248,0.0,0.0,48,0.00,,,0.00,WUHU216HW,2013-07-25 19:19:00,
2013-07-25 15:24:00,82.0,60.9,30.03,WSW,248,0.0,0.0,49,0.00,,,0.00,WUHU216HW,2013-07-25 19:24:00,
2013-07-25 15:29:00,82.2,61.1,30.02,WSW,248,0.0,0.0,49,0.00,,,0.00,WUHU216HW,2013-07-25 19:29:00,
2013-07-25 15:35:00,82.9,61.1,30.02,WSW,248,0.0,0.0,48,0.00,,,0.00,WUHU216HW,2013-07-25 19:35:00,
2013-07-25 15:40:00,82.7,60.3,30.02,WSW,248,0.0,0.0,47,0.00,,,0.00,WUHU216HW,2013-07-25 19:40:00,
2013-07-25 15:46:00,82.5,60.8,30.02,WSW,248,0.0,0.0,48,0.00,,,0.00,WUHU216HW,2013-07-25 19:46:00,
2013-07-25 15:51:00,82.7,60.3,30.02,WSW,248,0.0,0.0,47,0.00,,,0.00,WUHU216HW,2013-07-25 19:51:00,
2013-07-25 15:57:00,82.9,59.9,30.02,WSW,248,0.0,4.0,46,0.00,,,0.00,WUHU216HW,2013-07-25 19:57:00,
2013-07-25 16:02:00,82.2,59.5,30.02,WSW,248,0.0,4.0,46,0.00,,,0.00,WUHU216HW,2013-07-25 20:02:00,
2013-07-25 16:08:00,82.2,60.4,30.02,WSW,248,4.6,4.6,48,0.00,,,0.00,WUHU216HW,2013-07-25 20:08:00,
2013-07-25 16:13:00,82.5,59.5,30.02,WSW,248,0.0,4.6,46,0.00,,,0.00,WUHU216HW,2013-07-25 20:13:00,
2013-07-25 16:18:00,82.5,59.5,30.02,WSW,248,0.0,4.6,46,0.00,,,0.00,WUHU216HW,2013-07-25 20:18:00,
2013-07-25 16:23:00,82.9,60.5,30.02,WSW,248,0.0,0.0,47,0.00,,,0.00,WUHU216HW,2013-07-25 20:23:00,
2013-07-25 16:28:00,82.9,59.9,30.02,WSW,248,0.0,0.0,46,0.00,,,0.00,WUHU216HW,2013-07-25 20:28:00,
2013-07-25 16:34:00,82.5,59.2,30.02,WSW,248,0.0,0.0,46,0.00,,,0.00,WUHU216HW,2013-07-25 20:34:00,
2013-07-25 16:39:00,82.2,59.2,30.02,WSW,248,0.0,0.0,46,0.00,,,0.00,WUHU216HW,2013-07-25 20:39:00,
2013-07-25 16:44:00,82.5,59.5,30.02,WSW,248,0.0,0.0,46,0.00,,,0.00,WUHU216HW,2013-07-25 20:44:00,
2013-07-25 16:50:00,82.9,61.1,30.02,WSW,248,0.0,0.0,48,0.00,,,0.00,WUHU216HW,2013-07-25 20:50:00,
2013-07-25 16:55:00,83.8,62.0,30.03,WSW,248,0.0,0.0,48,0.00,,,0.00,WUHU216HW,2013-07-25 20:55:00,
2013-07-25 17:00:00,84.5,62.1,30.03,WSW,248,0.0,0.0,47,0.00,,,0.00,WUHU216HW,2013-07-25 21:00:00,
2013-07-25 17:06:00,84.5,61.4,30.03,WSW,248,0.0,0.0,46,0.00,,,0.00,WUHU216HW,2013-07-25 21:06:00,
2013-07-25 17:12:00,84.0,60.3,30.03,WSW,248,0.0,0.0,45,0.00,,,0.00,WUHU216HW,2013-07-25 21:12:00,
2013-07-25 17:17:00,83.4,61.0,30.03,WSW,248,0.0,0.0,47,0.00,,,0.00,WUHU216HW,2013-07-25 21:17:00,
2013-07-25 17:23:00,84.0,61.6,30.04,WSW,248,0.0,0.0,47,0.00,,,0.00,WUHU216HW,2013-07-25 21:23:00,
2013-07-25 17:28:00,84.0,60.3,30.04,WSW,248,0.0,0.0,45,0.00,,,0.00,WUHU216HW,2013-07-25 21:28:00,
2013-07-25 17:34:00,84.0,60.8,30.04,WSW,248,0.0,0.0,45,0.00,,,0.00,WUHU216HW,2013-07-25 21:34:00,
2013-07-25 17:39:00,84.0,60.3,30.04,WSW,248,0.0,0.0,45,0.00,,,0.00,WUHU216HW,2013-07-25 21:39:00,
2013-07-25 17:44:00,83.8,60.1,30.03,NNE,23,0.0,0.0,45,0.00,,,0.00,WUHU216HW,2013-07-25 21:44:00,
2013-07-25 17:49:00,83.1,58.8,30.03,WSW,248,0.0,0.0,44,0.00,,,0.00,WUHU216HW,2013-07-25 21:49:00,
2013-07-25 17:55:00,82.5,58.3,30.04,WSW,248,0.0,0.0,44,0.00,,,0.00,WUHU216HW,2013-07-25 21:55:00,
2013-07-25 18:00:00,82.0,58.4,30.03,WSW,248,0.0,0.0,45,0.00,,,0.00,WUHU216HW,2013-07-25 22:00:00,
2013-07-25 18:05:00,81.5,58.0,30.03,WSW,248,0.0,0.0,45,0.00,,,0.00,WUHU216HW,2013-07-25 22:05:00,
2013-07-25 18:11:00,80.9,58.1,30.03,WSW,248,0.0,0.0,46,0.00,,,0.00,WUHU216HW,2013-07-25 22:11:00,
2013-07-25 18:16:00,81.1,58.2,30.03,WSW,248,0.0,0.0,46,0.00,,,0.00,WUHU216HW,2013-07-25 22:16:00,
2013-07-25 18:22:00,81.8,58.9,30.03,WSW,248,0.0,0.0,46,0.00,,,0.00,WUHU216HW,2013-07-25 22:22:00,
2013-07-25 18:27:00,81.6,58.7,30.03,WSW,248,0.0,0.0,46,0.00,,,0.00,WUHU216HW,2013-07-25 22:27:00,
2013-07-25 18:32:00,81.3,59.0,30.03,WSW,248,0.0,0.0,47,0.00,,,0.00,WUHU216HW,2013-07-25 22:32:00,
2013-07-25 18:38:00,81.3,58.4,30.03,WSW,248,0.0,0.0,46,0.00,,,0.00,WUHU216HW,2013-07-25 22:38:00,
2013-07-25 18:43:00,80.7,58.5,30.04,WSW,248,0.0,0.0,47,0.00,,,0.00,WUHU216HW,2013-07-25 22:43:00,
2013-07-25 18:49:00,80.7,60.4,30.03,WSW,248,0.0,0.0,50,0.00,,,0.00,WUHU216HW,2013-07-25 22:49:00,
2013-07-25 18:55:00,80.7,59.8,30.03,WSW,248,0.0,0.0,49,0.00,,,0.00,WUHU216HW,2013-07-25 22:55:00,
2013-07-25 19:00:00,80.2,58.7,30.03,North,0,0.0,0.0,48,0.00,,,0.00,WUHU216HW,2013-07-25 23:00:00,
2013-07-25 19:05:00,79.8,58.3,30.04,NNE,23,0.0,0.0,48,0.00,,,0.00,WUHU216HW,2013-07-25 23:05:00,
2013-07-25 19:10:00,79.8,59.0,30.04,NNE,23,0.0,0.0,49,0.00,,,0.00,WUHU216HW,2013-07-25 23:10:00,
2013-07-25 19:16:00,79.8,60.1,30.04,NNE,23,0.0,0.0,51,0.00,,,0.00,WUHU216HW,2013-07-25 23:16:00,
2013-07-25 19:22:00,79.3,60.1,30.04,NNE,23,0.0,0.0,52,0.00,,,0.00,WUHU216HW,2013-07-25 23:22:00,
2013-07-25 19:27:00,78.6,58.9,30.04,WSW,248,0.0,0.0,51,0.00,,,0.00,WUHU216HW,2013-07-25 23:27:00,
2013-07-25 19:33:00,78.0,58.4,30.04,NNE,23,0.0,0.0,51,0.00,,,0.00,WUHU216HW,2013-07-25 23:33:00,
2013-07-25 19:38:00,77.7,58.8,30.04,NNE,23,0.0,0.0,53,0.00,,,0.00,WUHU216HW,2013-07-25 23:38:00,
2013-07-25 19:44:00,77.7,59.1,30.04,NNE,23,0.0,0.0,53,0.00,,,0.00,WUHU216HW,2013-07-25 23:44:00,
2013-07-25 19:49:00,77.3,59.8,30.04,NNE,23,0.0,0.0,55,0.00,,,0.00,WUHU216HW,2013-07-25 23:49:00,
2013-07-25 19:54:00,77.1,60.2,30.04,NNE,23,0.0,0.0,56,0.00,,,0.00,WUHU216HW,2013-07-25 23:54:00,
2013-07-25 20:00:00,76.6,59.7,30.03,NNE,23,0.0,0.0,56,0.00,,,0.00,WUHU216HW,2013-07-26 00:00:00,
2013-07-25 20:06:00,76.2,59.9,30.04,NNE,23,0.0,0.0,57,0.00,,,0.00,WUHU216HW,2013-07-26 00:06:00,
2013-07-25 20:11:00,75.7,59.9,30.03,NNE,23,0.0,0.0,58,0.00,,,0.00,WUHU216HW,2013-07-26 00:11:00,
2013-07-25 20:21:00,74.4,59.2,30.04,NNE,23,0.0,0.0,59,0.00,,,0.00,WUHU216HW,2013-07-26 00:21:00,
2013-07-25 20:27:00,73.9,59.1,30.03,NNE,23,0.0,0.0,60,0.00,,,0.00,WUHU216HW,2013-07-26 00:27:00,
2013-07-25 20:32:00,73.0,58.7,30.03,NNE,23,0.0,0.0,61,0.00,,,0.00,WUHU216HW,2013-07-26 00:32:00,
2013-07-25 20:37:00,72.3,58.1,30.03,NNE,23,0.0,0.0,61,0.00,,,0.00,WUHU216HW,2013-07-26 00:37:00,
2013-07-25 20:42:00,72.1,58.3,30.03,NNE,23,0.0,0.0,62,0.00,,,0.00,WUHU216HW,2013-07-26 00:42:00,
2013-07-25 20:48:00,71.4,57.7,30.03,NNE,23,0.0,0.0,62,0.00,,,0.00,WUHU216HW,2013-07-26 00:48:00,
2013-07-25 20:53:00,70.7,57.4,30.03,NNE,23,0.0,0.0,63,0.00,,,0.00,WUHU216HW,2013-07-26 00:53:00,
2013-07-25 20:59:00,70.3,57.5,30.04,NNE,23,0.0,0.0,64,0.00,,,0.00,WUHU216HW,2013-07-26 00:59:00,
2013-07-25 21:05:00,69.6,57.2,30.04,NNE,23,0.0,0.0,65,0.00,,,0.00,WUHU216HW,2013-07-26 01:05:00,
2013-07-25 21:10:00,69.4,57.1,30.04,NNE,23,0.0,0.0,65,0.00,,,0.00,WUHU216HW,2013-07-26 01:10:00,
2013-07-25 21:15:00,68.9,56.6,30.05,NNE,23,0.0,0.0,65,0.00,,,0.00,WUHU216HW,2013-07-26 01:15:00,
2013-07-25 21:21:00,68.3,56.5,30.05,NNE,23,0.0,0.0,66,0.00,,,0.00,WUHU216HW,2013-07-26 01:21:00,
2013-07-25 21:26:00,68.1,56.7,30.05,NNE,23,0.0,0.0,67,0.00,,,0.00,WUHU216HW,2013-07-26 01:26:00,
2013-07-25 21:32:00,67.8,56.8,30.06,NNE,23,0.0,0.0,68,0.00,,,0.00,WUHU216HW,2013-07-26 01:32:00,
2013-07-25 21:37:00,67.4,56.5,30.06,NNE,23,0.0,0.0,68,0.00,,,0.00,WUHU216HW,2013-07-26 01:37:00,
2013-07-25 21:43:00,67.1,56.5,30.06,NNE,23,0.0,0.0,69,0.00,,,0.00,WUHU216HW,2013-07-26 01:43:00,
2013-07-25 21:48:00,66.9,56.4,30.06,NNE,23,0.0,0.0,69,0.00,,,0.00,WUHU216HW,2013-07-26 01:48:00,
2013-07-25 21:54:00,66.5,56.4,30.07,NNE,23,0.0,0.0,70,0.00,,,0.00,WUHU216HW,2013-07-26 01:54:00,
2013-07-25 22:00:00,66.0,56.3,30.07,NNE,23,0.0,0.0,71,0.00,,,0.00,WUHU216HW,2013-07-26 02:00:00,
2013-07-25 22:05:00,66.0,56.3,30.07,NNE,23,0.0,0.0,71,0.00,,,0.00,WUHU216HW,2013-07-26 02:05:00,
2013-07-25 22:10:00,65.8,56.1,30.07,NNE,23,0.0,0.0,71,0.00,,,0.00,WUHU216HW,2013-07-26 02:10:00,
2013-07-25 22:15:00,65.3,55.6,30.07,NNE,23,0.0,0.0,71,0.00,,,0.00,WUHU216HW,2013-07-26 02:15:00,
2013-07-25 22:25:00,64.9,55.8,30.07,NNE,23,0.0,0.0,72,0.00,,,0.00,WUHU216HW,2013-07-26 02:25:00,
2013-07-25 22:31:00,64.7,55.9,30.07,NNE,23,0.0,0.0,73,0.00,,,0.00,WUHU216HW,2013-07-26 02:31:00,
2013-07-25 22:36:00,64.5,55.7,30.07,NNE,23,0.0,0.0,73,0.00,,,0.00,WUHU216HW,2013-07-26 02:36:00,
2013-07-25 22:42:00,64.2,55.4,30.07,NNE,23,0.0,0.0,73,0.00,,,0.00,WUHU216HW,2013-07-26 02:42:00,
2013-07-25 22:48:00,64.0,55.5,30.07,NNE,23,0.0,0.0,74,0.00,,,0.00,WUHU216HW,2013-07-26 02:48:00,
2013-07-25 22:54:00,63.6,55.2,30.07,NNE,23,0.0,0.0,74,0.00,,,0.00,WUHU216HW,2013-07-26 02:54:00,
2013-07-25 22:59:00,63.5,55.4,30.07,NNE,23,0.0,0.0,75,0.00,,,0.00,WUHU216HW,2013-07-26 02:59:00,
2013-07-25 23:04:00,63.1,55.0,30.07,NNE,23,0.0,0.0,75,0.00,,,0.00,WUHU216HW,2013-07-26 03:04:00,
2013-07-25 23:10:00,62.9,54.8,30.07,NNE,23,0.0,0.0,75,0.00,,,0.00,WUHU216HW,2013-07-26 03:10:00,
2013-07-25 23:16:00,62.7,55.0,30.07,NNE,23,0.0,0.0,76,0.00,,,0.00,WUHU216HW,2013-07-26 03:16:00,
2013-07-25 23:22:00,62.4,54.6,30.08,NNE,23,0.0,0.0,76,0.00,,,0.00,WUHU216HW,2013-07-26 03:22:00,
2013-07-25 23:28:00,62.2,54.5,30.07,NNE,23,0.0,0.0,76,0.00,,,0.00,WUHU216HW,2013-07-26 03:28:00,
2013-07-25 23:33:00,62.0,54.7,30.07,NNE,23,0.0,0.0,77,0.00,,,0.00,WUHU216HW,2013-07-26 03:33:00,
2013-07-25 23:38:00,61.8,54.5,30.08,NNE,23,0.0,0.0,77,0.00,,,0.00,WUHU216HW,2013-07-26 03:38:00,
2013-07-25 23:44:00,61.7,54.4,30.08,NNE,23,0.0,0.0,77,0.00,,,0.00,WUHU216HW,2013-07-26 03:44:00,
2013-07-25 23:49:00,61.5,54.6,30.08,NNE,23,0.0,0.0,78,0.00,,,0.00,WUHU216HW,2013-07-26 03:49:00,
2013-07-25 23:54:00,61.5,54.6,30.08,NNE,23,0.0,0.0,78,0.00,,,0.00,WUHU216HW,2013-07-26 03:54:00,